Location: Linton
(52.0940°N, 0.2850°E)
Time: 17:35:37
(UTC+01:00)

ISS - Visible Passes

Search period start: 18 July 2018 00:00
Search period end: 28 July 2018 00:00
Orbit: 402 x 408 km, 51.6° (Epoch: 18 July)

Date Brightness Start Highest point End Pass type
(mag) Time Alt. Az. Time Alt. Az. Time Alt. Az.
18 Jul -4.0 01:22:45 20° WSW 01:24:52 74° S 01:28:10 10° E visible
18 Jul -3.9 02:58:02 10° W 03:01:20 76° S 03:04:38 10° ESE visible
18 Jul -1.9 22:58:10 15° ESE 22:58:10 15° ESE 22:59:11 10° E visible
19 Jul -3.9 00:30:34 18° WSW 00:32:49 60° SSE 00:36:04 10° E visible
19 Jul -3.9 02:05:57 10° W 02:09:15 84° S 02:12:33 10° E visible
19 Jul -3.4 03:42:28 10° W 03:45:37 42° SSW 03:48:45 10° SE visible
19 Jul -1.9 22:03:23 10° SSE 22:04:54 13° SE 22:06:25 10° ESE visible
19 Jul -3.6 23:37:38 10° SW 23:40:48 45° SSE 23:43:57 10° E visible
20 Jul -4.0 01:13:52 10° W 01:17:10 85° S 01:20:28 10° E visible
20 Jul -3.8 02:50:21 10° W 02:53:36 57° SSW 02:56:50 10° ESE visible
20 Jul -3.1 22:45:49 10° SW 22:48:47 32° SSE 22:51:47 10° E visible
21 Jul -4.0 00:21:47 10° WSW 00:25:03 78° S 00:28:22 10° E visible
21 Jul -4.0 01:58:14 10° W 02:01:32 71° SSW 02:04:49 10° ESE visible
21 Jul -2.8 03:34:54 10° W 03:37:43 26° SSW 03:40:31 10° SSE visible
21 Jul -2.6 21:54:14 10° SSW 21:56:51 22° SSE 21:59:29 10° E visible
21 Jul -3.9 23:29:42 10° WSW 23:32:58 66° SSE 23:36:14 10° E visible
22 Jul -4.0 01:06:07 10° W 01:09:26 82° S 01:12:43 10° E visible
22 Jul -3.3 02:42:39 10° W 02:45:44 37° SSW 02:48:48 10° SE visible
22 Jul -3.7 22:37:42 10° WSW 22:40:53 50° SSE 22:44:06 10° E visible
23 Jul -4.0 00:14:00 10° W 00:17:18 85° S 00:20:36 10° E visible
23 Jul -3.6 01:50:29 10° W 01:53:20 48° SW 01:53:20 48° SW visible
23 Jul -3.2 21:45:48 10° SW 21:48:51 36° SSE 21:51:55 10° E visible
23 Jul -4.0 23:21:52 10° W 23:25:09 81° S 23:28:28 10° E visible
24 Jul -4.0 00:58:20 10° W 01:01:36 66° SSW 01:01:44 65° S visible
24 Jul -3.9 22:29:45 10° WSW 22:33:01 71° SSE 22:36:18 10° E visible
25 Jul -4.0 00:06:11 10° W 00:09:28 78° S 00:10:45 34° ESE visible
25 Jul -1.5 01:42:45 10° W 01:43:21 14° W 01:43:21 14° W visible
25 Jul -3.7 21:37:40 10° WSW 21:40:54 56° SSE 21:44:08 10° E visible
25 Jul -3.9 23:14:01 10° W 23:17:19 85° S 23:19:57 15° E visible
26 Jul -2.7 00:50:30 10° W 00:52:35 31° WSW 00:52:35 31° WSW visible
26 Jul -3.9 22:21:50 10° W 22:25:08 84° S 22:28:26 10° E visible
26 Jul -3.9 23:58:19 10° W 00:01:34 61° SSW 00:01:54 56° SSE visible
27 Jul -3.9 23:06:07 10° W 23:09:25 74° S 23:11:15 24° ESE visible
